Overview Statistics Trail Chart Weather Telemetry Raw packets
 

This is the latest recevied weather packets stored in our database for station/object DJ2KUA-6. If no packets are shown the sender has not sent any weather packets the latest 10 day(s).

<< 11 12 13 14 15 16 17 >>
Time Temp. Humidity Pressure Rain* Wind** Luminosity Snow
1788252359 22.22° C 66% 1074 hPa 0 mm - - -
1788251218 22.22° C 69% 1074 hPa 0 mm - - -
1788250080 21.11° C 73% 1074 hPa 0 mm - - -
1788248948 20° C 76% 1074 hPa 0 mm - - -
1788247800 18.89° C 80% 1074 hPa 0 mm - - -
1788246659 17.78° C 83% 1074 hPa 0 mm - - -
1788245553 16.67° C 85% 1074 hPa 0 mm - - -
1788244413 16.67° C 85% 1074 hPa 0 mm - - -
1788243273 15.56° C 86% 1074 hPa 0 mm - - -
1788242130 15° C 86% 1074 hPa 0 mm - - -
1788240993 14.44° C 86% 1074 hPa 0 mm - - -
1788238714 14.44° C 86% 1074 hPa 0 mm - - -
1788237572 14.44° C 85% 1074 hPa 0 mm - - -
1788236433 15° C 85% 1074 hPa 0 mm - - -
1788235294 15° C 86% 1074 hPa 0 mm - - -
1788234154 15° C 86% 1073 hPa 0 mm - - -
1788233013 15° C 85% 1073 hPa 0 mm - - -
1788231872 15° C 85% 1073 hPa 0 mm - - -
1788229593 15° C 85% 1073 hPa 0 mm - - -
1788228453 15° C 86% 1073 hPa 0 mm - - -
1788227312 15° C 85% 1073 hPa 0 mm - - -
1788226173 15° C 85% 1073 hPa 0 mm - - -
1788225032 15.56° C 84% 1073 hPa 0 mm - - -
1788223892 16.11° C 84% 1073 hPa 0 mm - - -
1788222753 16.67° C 83% 1073 hPa 0 mm - - -

* Rain latest hour (hover to see other rain measurements)
** Current wind speed in m/s (hover to see current wind gust speed)